Weather History for Demopolis Municipal Airport, AL

Change the Weather History Date:

Saturday, February 1, 2014

  Actual Average (KMEI) Record (KMEI)
Temperature  
Mean Temperature 48 °F 46 °F  
Max Temperature 68 °F 58 °F 81 °F (1950)
Min Temperature 28 °F 34 °F 12 °F (1951)
Degree Days  
Heating Degree Days 17 19  
Month to date heating degree days 19  
Since 1 July heating degree days 1656  
Cooling Degree Days 0 0  
Month to date cooling degree days 0  
Year to date cooling degree days 3  
Moisture  
Dew Point 42 °F    
Average Humidity 74    
Maximum Humidity 100    
Minimum Humidity 48    
Precipitation  
Precipitation 0.00 in 0.21 in 4.17 in (1983)
Month to date precipitation 0.21  
Year to date precipitation 5.34  
Sea Level Pressure  
Sea Level Pressure 30.08 in    
Wind  
Wind Speed 1 mph (South)    
Max Wind Speed 10 mph    
Max Gust Speed -    
Visibility 10 miles    
Events      
T = Trace of Precipitation, MM = Missing Value Source: NWS Daily Summary

Daily Weather History Graph

Daily Weather History Graph

Search for Another Location

Airport:

Trip Planner

Search our weather history database for the weather conditions in past years. The results will help you decide how hot, cold, wet, or windy it might be!

Date:

Astronomy

Feb. 01, 2014 Rise Set
Actual Time 6:46 AM CST 5:25 PM CST
Civil Twilight 6:20 AM CST 5:50 PM CST
Nautical Twilight 5:51 AM CST 6:20 PM CST
Astronomical Twilight 5:22 AM CST 6:49 PM CST
Moon 7:45 AM CST (2/1) 7:48 PM CST (2/1)
Length of Visible Light 11h 30m
Length of Day
10h 38m
Waxing Crescent, 5% of the Moon is Illuminated
Feb 1
Waxing Crescent
Feb 6
First Quarter
Feb 14
Full
Feb 22
Last Quarter
Mar 1
New

Hourly Weather History & Observations

Time (CST) Temp. Windchill Dew Point Humidity Pressure Visibility Wind Dir Wind Speed Gust Speed Precip Events Conditions
12:15 AM 36.9 °F - 25.5 °F 64% 30.09 in 10.0 mi Calm Calm - N/A   Clear
12:35 AM 35.6 °F 32.8 °F 26.4 °F 69% 30.09 in 10.0 mi ESE 3.5 mph - N/A   Clear
12:55 AM 33.3 °F - 25.9 °F 74% 30.10 in 10.0 mi Calm Calm - N/A   Clear
1:15 AM 33.1 °F - 25.9 °F 75% 30.10 in 10.0 mi Calm Calm - N/A   Clear
1:35 AM 31.6 °F - 26.4 °F 81% 30.09 in 10.0 mi Calm Calm - N/A   Clear
1:55 AM 30.6 °F - 26.1 °F 83% 30.09 in 10.0 mi Calm Calm - N/A   Clear
2:15 AM 31.1 °F - 26.6 °F 83% 30.08 in 10.0 mi Calm Calm - N/A   Scattered Clouds
2:35 AM 31.5 °F - 28.0 °F 87% 30.07 in 10.0 mi Calm Calm - N/A   Mostly Cloudy
2:55 AM 35.1 °F - 29.1 °F 79% 30.08 in 10.0 mi Calm Calm - N/A   Overcast
3:15 AM 37.6 °F - 31.3 °F 78% 30.08 in 10.0 mi Calm Calm - N/A   Overcast
3:35 AM 36.9 °F - 30.4 °F 77% 30.08 in 10.0 mi Calm Calm - N/A   Overcast
3:55 AM 35.4 °F - 29.5 °F 79% 30.07 in 10.0 mi Calm Calm - N/A   Scattered Clouds
4:15 AM 35.2 °F - 29.7 °F 80% 30.09 in 10.0 mi Calm Calm - N/A   Clear
4:35 AM 32.9 °F - 31.1 °F 93% 30.09 in 10.0 mi Calm Calm - N/A   Scattered Clouds
4:55 AM 32.0 °F - 32.0 °F 100% 30.09 in 10.0 mi Calm Calm - N/A   Scattered Clouds
5:15 AM 31.8 °F - 31.8 °F 100% 30.09 in 10.0 mi Calm Calm - N/A   Clear
5:35 AM 30.0 °F - 30.0 °F 100% 30.09 in 10.0 mi Calm Calm - N/A   Clear
5:55 AM 30.6 °F - 30.6 °F 100% 30.09 in 10.0 mi Calm Calm - N/A   Clear
6:15 AM 29.5 °F - 29.5 °F 100% 30.09 in 10.0 mi Calm Calm - N/A   Clear
6:35 AM 29.1 °F - 29.1 °F 100% 30.10 in 10.0 mi Calm Calm - N/A   Clear
6:55 AM 28.9 °F - 28.9 °F 100% 30.11 in 10.0 mi Calm Calm - N/A   Clear
7:15 AM 29.8 °F - 29.8 °F 100% 30.10 in 10.0 mi Calm Calm - N/A   Clear
7:35 AM 32.0 °F - 32.0 °F 100% 30.10 in 10.0 mi Calm Calm - N/A   Clear
7:55 AM 35.1 °F - 35.1 °F 100% 30.11 in 10.0 mi Calm Calm - N/A   Clear
8:15 AM 39.9 °F - 31.8 °F 73% 30.11 in 10.0 mi Calm Calm - N/A   Clear
8:35 AM 44.1 °F - 32.9 °F 65% 30.12 in 10.0 mi Calm Calm - N/A   Clear
8:55 AM 47.3 °F - 35.4 °F 63% 30.12 in 10.0 mi Calm Calm - N/A   Clear
9:15 AM 50.5 °F - 37.6 °F 61% 30.12 in 10.0 mi Calm Calm - N/A   Scattered Clouds
9:35 AM 53.6 °F - 40.5 °F 61% 30.12 in 10.0 mi SE 4.6 mph - N/A   Scattered Clouds
9:55 AM 56.3 °F - 42.3 °F 59% 30.12 in 10.0 mi Calm Calm - N/A   Clear
10:15 AM 58.3 °F - 44.2 °F 60% 30.12 in 10.0 mi Calm Calm - N/A   Clear
10:35 AM 59.7 °F - 45.3 °F 59% 30.11 in 10.0 mi Calm Calm - N/A   Clear
10:55 AM 61.9 °F - 46.2 °F 56% 30.10 in 10.0 mi SSE 8.1 mph - N/A   Clear
11:15 AM 61.3 °F - 46.4 °F 58% 30.09 in 10.0 mi SSE 6.9 mph - N/A   Scattered Clouds
11:35 AM 63.7 °F - 47.1 °F 55% 30.09 in 10.0 mi SSE 6.9 mph - N/A   Scattered Clouds
11:55 AM 64.4 °F - 47.1 °F 53% 30.08 in 10.0 mi South 4.6 mph - N/A   Scattered Clouds
12:15 PM 65.7 °F - 47.5 °F 52% 30.07 in 10.0 mi SSW 6.9 mph - N/A   Scattered Clouds
12:35 PM 67.8 °F - 47.7 °F 48% 30.07 in 10.0 mi SW 9.2 mph - N/A   Scattered Clouds
12:55 PM 66.9 °F - 47.8 °F 50% 30.06 in 10.0 mi SW 8.1 mph - N/A   Scattered Clouds
1:15 PM 66.0 °F - 47.8 °F 52% 30.06 in 10.0 mi Calm Calm - N/A   Mostly Cloudy
1:35 PM 67.6 °F - 48.0 °F 49% 30.06 in 10.0 mi SW 6.9 mph - N/A   Mostly Cloudy
1:55 PM 68.0 °F - 48.0 °F 49% 30.05 in 10.0 mi WSW 8.1 mph - N/A   Mostly Cloudy
2:15 PM 68.2 °F - 48.2 °F 49% 30.05 in - WSW 10.4 mph - N/A   Unknown
2:35 PM 68.9 °F - 48.7 °F 49% 30.05 in 10.0 mi SW 9.2 mph - N/A   Mostly Cloudy
2:55 PM 66.6 °F - 48.4 °F 52% 30.05 in 10.0 mi South 3.5 mph - N/A   Mostly Cloudy
3:15 PM 67.1 °F - 48.6 °F 51% 30.05 in 10.0 mi Calm Calm - N/A   Overcast
3:35 PM 66.9 °F - 48.6 °F 52% 30.04 in 10.0 mi Calm Calm - N/A   Overcast
3:55 PM 67.1 °F - 48.7 °F 52% 30.04 in 10.0 mi SW 3.5 mph - N/A   Overcast
4:15 PM 66.6 °F - 48.7 °F 53% 30.05 in 10.0 mi Calm Calm - N/A   Overcast
4:35 PM 66.2 °F - 49.1 °F 54% 30.05 in 10.0 mi Calm Calm - N/A   Overcast
4:55 PM 64.2 °F - 50.2 °F 60% 30.05 in 10.0 mi Calm Calm - N/A   Overcast
5:15 PM 63.7 °F - 50.2 °F 61% 30.04 in 10.0 mi Calm Calm - N/A   Overcast
5:35 PM 59.9 °F - 50.2 °F 70% 30.04 in 10.0 mi Calm Calm - N/A   Overcast
5:55 PM 59.4 °F - 50.0 °F 71% 30.04 in 10.0 mi Calm Calm - N/A   Overcast
6:15 PM 58.3 °F - 50.2 °F 74% 30.05 in 10.0 mi Calm Calm - N/A   Overcast
6:35 PM 56.7 °F - 49.5 °F 77% 30.05 in 10.0 mi Calm Calm - N/A   Overcast
6:55 PM 55.8 °F - 49.3 °F 79% 30.05 in 10.0 mi Calm Calm - N/A   Overcast
7:15 PM 55.9 °F - 49.5 °F 79% 30.05 in 10.0 mi Calm Calm - N/A   Overcast
7:35 PM 54.7 °F - 48.9 °F 81% 30.06 in 10.0 mi Calm Calm - N/A   Overcast
7:55 PM 54.5 °F - 49.1 °F 82% 30.06 in 10.0 mi Calm Calm - N/A   Mostly Cloudy
8:15 PM 53.1 °F - 50.9 °F 92% 30.06 in 10.0 mi Calm Calm - N/A   Overcast
8:35 PM 52.9 °F - 51.1 °F 94% 30.06 in 10.0 mi Calm Calm - N/A   Overcast
8:55 PM 54.0 °F - 48.4 °F 81% 30.06 in 10.0 mi Calm Calm - N/A   Overcast
9:15 PM 53.2 °F - 50.5 °F 91% 30.06 in 10.0 mi Calm Calm - N/A   Mostly Cloudy
9:35 PM 52.3 °F - 47.5 °F 84% 30.05 in 10.0 mi Calm Calm - N/A   Overcast
9:55 PM 52.7 °F - 52.7 °F 100% 30.06 in 10.0 mi Calm Calm - N/A   Overcast
10:15 PM 55.0 °F - 49.6 °F 82% 30.07 in 10.0 mi Calm Calm - N/A   Overcast
10:35 PM 55.2 °F - 50.5 °F 84% 30.06 in 10.0 mi SSE 4.6 mph - N/A   Overcast
10:55 PM 56.7 °F - 52.2 °F 85% 30.05 in 10.0 mi ESE 6.9 mph - N/A   Mostly Cloudy
11:15 PM 57.6 °F - 52.9 °F 84% 30.06 in 10.0 mi SSE 4.6 mph - N/A   Mostly Cloudy
11:35 PM 57.2 °F - 57.2 °F 100% 30.06 in 10.0 mi Calm Calm - N/A   Mostly Cloudy
11:55 PM 57.2 °F - 57.2 °F 100% 30.05 in 10.0 mi SSE 3.5 mph - N/A   Mostly Cloudy